Truckee, CA

8:54 PM PDT on September 29, 2016 (GMT -0700)
Truckee-Tahoe

Weather History for KTRK - July, 2014

Change the Weather History Date:

Friday, July 4, 2014

  Actual Average Record
Temperature  
Mean Temperature 60 °F -  
Max Temperature 82 °F 79 °F 96 °F (2007)
Min Temperature 37 °F 40 °F 28 °F (1975)
Degree Days  
Heating Degree Days 6    
Growing Degree Days 10 (Base 50)    
Moisture  
Dew Point 35 °F    
Average Humidity 50    
Maximum Humidity 87    
Minimum Humidity 17    
Precipitation  
Precipitation 0.00 in - - ()
Sea Level Pressure  
Sea Level Pressure 30.25 in    
Wind  
Wind Speed 3 mph (SW)    
Max Wind Speed 18 mph    
Max Gust Speed 24 mph    
Visibility 10 miles    
Events      
Averages and records for this station are not official NWS values.
T = Trace of Precipitation, MM = Missing Value Source: NWS Daily Summary

Daily Weather History Graph

Daily Weather History Graph

Search for Another Location

Airport or City:

Trip Planner

Search our weather history database for the weather conditions in past years. The results will help you decide how hot, cold, wet, or windy it might be!

Date:

Astronomy

Jul. 04, 2014 Rise Set
Actual Time 5:39 AM PDT 8:30 PM PDT
Civil Twilight 5:07 AM PDT 9:02 PM PDT
Nautical Twilight 4:26 AM PDT 9:42 PM PDT
Astronomical Twilight 3:40 AM PDT 10:29 PM PDT
Moon 12:37 PM PDT (7/4) No Moon Set
Length of Visible Light 15h 55m
Length of Day
14h 51m
Waxing Crescent, 43% of the Moon is Illuminated
Jul 4
Waxing Crescent
Jul 5
First Quarter
Jul 12
Full
Jul 18
Last Quarter
Jul 26
New

Hourly Weather History & Observations

Time (PDT) Temp. Windchill Dew Point Humidity Pressure Visibility Wind Dir Wind Speed Gust Speed Precip Events Conditions
12:15 AM 51.8 °F - 35.6 °F 54% 30.23 in 10.0 mi Calm Calm - N/A   Clear
12:35 AM 50.0 °F - 35.6 °F 58% 30.23 in 10.0 mi Calm Calm - N/A   Clear
12:55 AM 46.4 °F - 37.4 °F 71% 30.23 in 10.0 mi Calm Calm - N/A   Clear
1:15 AM 46.4 °F - 37.4 °F 71% 30.23 in 10.0 mi Calm Calm - N/A   Clear
1:35 AM 44.6 °F - 32.0 °F 61% 30.23 in 10.0 mi Calm Calm - N/A   Clear
1:55 AM 44.6 °F - 35.6 °F 71% 30.23 in 10.0 mi Calm Calm - N/A   Clear
2:15 AM 42.8 °F - 33.8 °F 70% 30.23 in 10.0 mi Calm Calm - N/A   Clear
2:35 AM 37.4 °F - 32.0 °F 81% 30.23 in 10.0 mi Calm Calm - N/A   Clear
2:55 AM 41.0 °F - 33.8 °F 76% 30.23 in 10.0 mi Calm Calm - N/A   Clear
3:15 AM 41.0 °F - 32.0 °F 70% 30.23 in 10.0 mi Calm Calm - N/A   Clear
3:35 AM 42.8 °F - 33.8 °F 70% 30.23 in 10.0 mi Calm Calm - N/A   Clear
3:55 AM 41.0 °F 39.0 °F 33.8 °F 76% 30.23 in 10.0 mi SSW 3.5 mph - N/A   Clear
4:15 AM 39.2 °F - 33.8 °F 81% 30.23 in 10.0 mi Calm Calm - N/A   Clear
4:35 AM 37.4 °F - 33.8 °F 87% 30.22 in 10.0 mi Calm Calm - N/A   Clear
4:55 AM 39.2 °F - 33.8 °F 81% 30.22 in 10.0 mi Calm Calm - N/A   Clear
5:15 AM 39.2 °F - 33.8 °F 81% 30.23 in 10.0 mi Calm Calm - N/A   Clear
5:35 AM 37.4 °F - 33.8 °F 87% 30.23 in 10.0 mi Calm Calm - N/A   Clear
5:55 AM 37.4 °F - 32.0 °F 81% 30.23 in 10.0 mi Calm Calm - N/A   Clear
6:15 AM 39.2 °F - 32.0 °F 75% 30.23 in 10.0 mi Calm Calm - N/A   Clear
6:35 AM 39.2 °F - 33.8 °F 81% 30.24 in 10.0 mi Calm Calm - N/A   Clear
6:55 AM 44.6 °F - 33.8 °F 66% 30.25 in 10.0 mi Calm Calm - N/A   Clear
7:50 AM 50.0 °F - 33.8 °F 54% 30.25 in 10.0 mi Calm Calm - N/A   Clear
8:55 AM 60.8 °F - 37.4 °F 42% 30.25 in 10.0 mi Calm Calm - N/A   Clear
9:45 AM 75.2 °F - 33.8 °F 22% 30.23 in 10.0 mi SW 12.7 mph 18.4 mph N/A   Clear
10:45 AM 78.8 °F - 32.0 °F 18% 30.25 in 10.0 mi WSW 11.5 mph 20.7 mph N/A   Clear
11:55 AM 80.6 °F - 33.8 °F 18% 30.25 in 10.0 mi WSW 13.8 mph 20.7 mph N/A   Clear
12:55 PM 82.4 °F - 33.8 °F 17% 30.24 in 10.0 mi South 13.8 mph 24.2 mph N/A   Clear
1:55 PM 82.4 °F - 35.6 °F 19% 30.23 in 10.0 mi South 15.0 mph 20.7 mph N/A   Clear
2:50 PM 82.4 °F - 35.6 °F 19% 30.24 in 10.0 mi SW 16.1 mph 21.9 mph N/A   Clear
3:55 PM 82.4 °F - 35.6 °F 19% 30.24 in 10.0 mi SSW 17.3 mph 24.2 mph N/A   Clear
4:45 PM 80.6 °F - 37.4 °F 21% 30.23 in 10.0 mi SSW 18.4 mph 24.2 mph N/A   Clear
5:45 PM 78.8 °F - 37.4 °F 23% 30.23 in 10.0 mi SSW 16.1 mph 21.9 mph N/A   Clear
6:15 PM 78.8 °F - 35.6 °F 21% 30.23 in 10.0 mi SSW 9.2 mph - N/A   Clear
6:35 PM 77.0 °F - 35.6 °F 22% 30.23 in 10.0 mi SW 6.9 mph - N/A   Clear
6:55 PM 77.0 °F - 35.6 °F 22% 30.24 in 10.0 mi SW 8.1 mph - N/A   Clear
7:15 PM 73.4 °F - 35.6 °F 25% 30.25 in 10.0 mi WSW 10.4 mph - N/A   Clear
7:35 PM 73.4 °F - 35.6 °F 25% 30.25 in 10.0 mi SW 8.1 mph - N/A   Clear
7:55 PM 69.8 °F - 35.6 °F 28% 30.25 in 10.0 mi WSW 5.8 mph - N/A   Clear
8:15 PM 68.0 °F - 35.6 °F 30% 30.25 in 10.0 mi WSW 4.6 mph - N/A   Clear
8:35 PM 64.4 °F - 35.6 °F 34% 30.26 in 10.0 mi WSW 5.8 mph - N/A   Clear
8:55 PM 62.6 °F - 35.6 °F 37% 30.26 in 10.0 mi Calm Calm - N/A   Clear
9:15 PM 60.8 °F - 35.6 °F 39% 30.27 in 10.0 mi SSE 3.5 mph - N/A   Clear
9:35 PM 57.2 °F - 35.6 °F 44% 30.28 in 10.0 mi Calm Calm - N/A   Clear
9:55 PM 57.2 °F - 37.4 °F 48% 30.28 in 10.0 mi Calm Calm - N/A   Clear
10:15 PM 59.0 °F - 37.4 °F 45% 30.29 in 10.0 mi Calm Calm - N/A   Clear
10:35 PM 53.6 °F - 37.4 °F 54% 30.29 in 10.0 mi Calm Calm - N/A   Clear
10:55 PM 51.8 °F - 35.6 °F 54% 30.29 in 10.0 mi SSE 3.5 mph - N/A   Clear
11:15 PM 51.8 °F - 35.6 °F 54% 30.29 in 10.0 mi Calm Calm - N/A   Clear
11:35 PM 51.8 °F - 37.4 °F 58% 30.30 in 10.0 mi Calm Calm - N/A   Clear
11:55 PM 50.0 °F - 35.6 °F 58% 30.30 in 10.0 mi Calm Calm - N/A   Clear